Time,TemperatureF,DewpointF,PressureIn,WindDirection,WindDirectionDegrees,WindSpeedMPH,WindSpeedGustMPH,Humidity,HourlyPrecipIn,Conditions,Clouds,dailyrainin,SolarRadiationWatts/m^2,SoftwareType,DateUTC
2013-02-07 00:00:00,39.1,33.1,30.38,ENE,69,1.0,2.0,79,0.00,,,0.00,0,Wunderground v.1.15,2013-02-07 05:00:00,
2013-02-07 00:05:00,39.1,33.1,30.39,ENE,77,2.0,4.0,79,0.00,,,0.00,0,Wunderground v.1.15,2013-02-07 05:05:00,
2013-02-07 00:10:00,39.1,33.1,30.40,ENE,61,4.0,4.0,79,0.00,,,0.00,0,Wunderground v.1.15,2013-02-07 05:10:00,
2013-02-07 00:15:00,38.8,32.8,30.40,ESE,105,1.0,5.0,79,0.00,,,0.00,0,Wunderground v.1.15,2013-02-07 05:15:00,
2013-02-07 00:20:00,38.4,32.8,30.40,East,96,0.0,1.0,80,0.00,,,0.00,0,Wunderground v.1.15,2013-02-07 05:20:00,
2013-02-07 00:25:00,37.9,32.6,30.41,East,96,2.0,2.0,81,0.00,,,0.00,0,Wunderground v.1.15,2013-02-07 05:25:00,
2013-02-07 00:30:00,38.2,32.9,30.41,East,97,1.0,2.0,81,0.00,,,0.00,0,Wunderground v.1.15,2013-02-07 05:30:00,
2013-02-07 00:35:00,38.4,33.1,30.41,ESE,109,0.0,3.0,81,0.00,,,0.00,0,Wunderground v.1.15,2013-02-07 05:35:00,
2013-02-07 00:40:00,38.2,32.9,30.41,East,90,2.0,2.0,81,0.00,,,0.00,0,Wunderground v.1.15,2013-02-07 05:40:00,
2013-02-07 00:45:00,38.5,33.2,30.41,ENE,63,1.0,3.0,81,0.00,,,0.00,0,Wunderground v.1.15,2013-02-07 05:45:00,
2013-02-07 00:50:00,38.8,33.2,30.41,ENE,64,3.0,3.0,80,0.00,,,0.00,0,Wunderground v.1.15,2013-02-07 05:50:00,
2013-02-07 00:55:00,38.9,33.3,30.41,ENE,63,3.0,4.0,80,0.00,,,0.00,0,Wunderground v.1.15,2013-02-07 05:55:00,
2013-02-07 01:00:00,38.7,33.1,30.41,ENE,57,1.0,2.0,80,0.00,,,0.00,0,Wunderground v.1.15,2013-02-07 06:00:00,
2013-02-07 01:05:00,37.7,32.7,30.41,ENE,69,3.0,5.0,82,0.00,,,0.00,0,Wunderground v.1.15,2013-02-07 06:05:00,
2013-02-07 01:10:00,38.0,33.0,30.40,ENE,76,3.0,5.0,82,0.00,,,0.00,0,Wunderground v.1.15,2013-02-07 06:10:00,
2013-02-07 01:15:00,38.0,32.7,30.40,NE,51,3.0,5.0,81,0.00,,,0.00,0,Wunderground v.1.15,2013-02-07 06:15:00,
2013-02-07 01:20:00,36.8,31.8,30.39,NE,47,0.0,2.0,82,0.00,,,0.00,0,Wunderground v.1.15,2013-02-07 06:20:00,
2013-02-07 01:25:00,36.4,32.3,30.40,ENE,60,2.0,5.0,85,0.00,,,0.00,0,Wunderground v.1.15,2013-02-07 06:25:00,
2013-02-07 01:30:00,37.2,32.8,30.40,ENE,59,2.0,2.0,84,0.00,,,0.00,0,Wunderground v.1.15,2013-02-07 06:30:00,
2013-02-07 01:35:00,37.3,32.6,30.40,ENE,57,3.0,4.0,83,0.00,,,0.00,0,Wunderground v.1.15,2013-02-07 06:35:00,
2013-02-07 01:40:00,37.2,32.8,30.40,ENE,67,5.0,5.0,84,0.00,,,0.00,0,Wunderground v.1.15,2013-02-07 06:40:00,
2013-02-07 01:45:00,37.3,32.6,30.40,East,80,1.0,5.0,83,0.00,,,0.00,0,Wunderground v.1.15,2013-02-07 06:45:00,
2013-02-07 01:50:00,37.2,32.5,30.40,ENE,63,2.0,3.0,83,0.00,,,0.00,0,Wunderground v.1.15,2013-02-07 06:50:00,
2013-02-07 01:55:00,36.4,32.0,30.40,NNE,13,3.0,5.0,84,0.00,,,0.00,0,Wunderground v.1.15,2013-02-07 06:55:00,
2013-02-07 02:00:00,35.4,31.3,30.39,North,5,3.0,3.0,85,0.00,,,0.00,0,Wunderground v.1.15,2013-02-07 07:00:00,
2013-02-07 02:05:00,34.9,31.1,30.39,North,355,2.0,5.0,86,0.00,,,0.00,0,Wunderground v.1.15,2013-02-07 07:05:00,
2013-02-07 02:10:00,35.4,32.2,30.39,ENE,76,3.0,3.0,88,0.00,,,0.00,0,Wunderground v.1.15,2013-02-07 07:10:00,
2013-02-07 02:15:00,36.0,32.2,30.39,NE,55,4.0,5.0,86,0.00,,,0.00,0,Wunderground v.1.15,2013-02-07 07:15:00,
2013-02-07 02:20:00,36.0,31.9,30.39,NNE,30,4.0,4.0,85,0.00,,,0.00,0,Wunderground v.1.15,2013-02-07 07:20:00,
2013-02-07 02:25:00,35.5,31.7,30.39,NNE,17,3.0,5.0,86,0.00,,,0.00,0,Wunderground v.1.15,2013-02-07 07:25:00,
2013-02-07 02:30:00,35.3,31.8,30.39,NNE,24,0.0,3.0,87,0.00,,,0.00,0,Wunderground v.1.15,2013-02-07 07:30:00,
2013-02-07 02:35:00,34.9,31.4,30.38,NNE,28,4.0,6.0,87,0.00,,,0.00,0,Wunderground v.1.15,2013-02-07 07:35:00,
2013-02-07 02:40:00,34.8,31.6,30.38,NE,44,5.0,5.0,88,0.00,,,0.00,0,Wunderground v.1.15,2013-02-07 07:40:00,
2013-02-07 02:45:00,34.8,31.6,30.38,NNE,28,4.0,7.0,88,0.00,,,0.00,0,Wunderground v.1.15,2013-02-07 07:45:00,
2013-02-07 02:50:00,34.9,31.4,30.38,NNE,25,0.0,4.0,87,0.00,,,0.00,0,Wunderground v.1.15,2013-02-07 07:50:00,
2013-02-07 02:55:00,34.7,31.2,30.38,NNE,31,1.0,6.0,87,0.00,,,0.00,0,Wunderground v.1.15,2013-02-07 07:55:00,
2013-02-07 03:00:00,34.4,30.9,30.38,NE,37,3.0,4.0,87,0.00,,,0.00,0,Wunderground v.1.15,2013-02-07 08:00:00,
2013-02-07 03:05:00,34.2,30.7,30.38,North,5,5.0,7.0,87,0.00,,,0.00,0,Wunderground v.1.15,2013-02-07 08:05:00,
2013-02-07 03:10:00,34.1,30.6,30.38,North,5,1.0,3.0,87,0.00,,,0.00,0,Wunderground v.1.15,2013-02-07 08:10:00,
2013-02-07 03:15:00,33.6,30.1,30.38,NNE,28,3.0,4.0,87,0.00,,,0.00,0,Wunderground v.1.15,2013-02-07 08:15:00,
2013-02-07 03:20:00,33.4,30.2,30.39,NNE,17,2.0,2.0,88,0.00,,,0.00,0,Wunderground v.1.15,2013-02-07 08:20:00,
2013-02-07 03:25:00,33.4,30.2,30.39,North,11,3.0,5.0,88,0.00,,,0.00,0,Wunderground v.1.15,2013-02-07 08:25:00,
2013-02-07 03:30:00,33.4,30.2,30.39,NNE,28,1.0,2.0,88,0.00,,,0.00,0,Wunderground v.1.15,2013-02-07 08:30:00,
2013-02-07 03:35:00,33.3,29.8,30.39,North,11,1.0,5.0,87,0.00,,,0.00,0,Wunderground v.1.15,2013-02-07 08:35:00,
2013-02-07 03:40:00,33.3,29.8,30.40,North,5,4.0,4.0,87,0.00,,,0.00,0,Wunderground v.1.15,2013-02-07 08:40:00,
2013-02-07 03:45:00,33.1,29.7,30.40,NNE,17,2.0,4.0,87,0.00,,,0.00,0,Wunderground v.1.15,2013-02-07 08:45:00,
2013-02-07 03:50:00,32.7,29.5,30.40,North,5,0.0,2.0,88,0.00,,,0.00,0,Wunderground v.1.15,2013-02-07 08:50:00,
2013-02-07 03:55:00,32.3,29.1,30.40,North,355,3.0,4.0,88,0.00,,,0.00,0,Wunderground v.1.15,2013-02-07 08:55:00,
2013-02-07 04:00:00,32.5,29.6,30.40,North,360,2.0,4.0,89,0.00,,,0.00,0,Wunderground v.1.15,2013-02-07 09:00:00,
2013-02-07 04:05:00,32.6,29.4,30.40,North,9,2.0,4.0,88,0.00,,,0.00,0,Wunderground v.1.15,2013-02-07 09:05:00,
2013-02-07 04:10:00,32.8,29.6,30.40,NNE,16,3.0,3.0,88,0.00,,,0.00,0,Wunderground v.1.15,2013-02-07 09:10:00,
2013-02-07 04:15:00,33.0,29.8,30.40,North,9,3.0,4.0,88,0.00,,,0.00,0,Wunderground v.1.15,2013-02-07 09:15:00,
2013-02-07 04:20:00,33.0,29.8,30.40,NNE,32,3.0,4.0,88,0.00,,,0.00,0,Wunderground v.1.15,2013-02-07 09:20:00,
2013-02-07 04:25:00,33.1,29.9,30.40,NNE,16,4.0,6.0,88,0.00,,,0.00,0,Wunderground v.1.15,2013-02-07 09:25:00,
2013-02-07 04:30:00,33.0,29.8,30.40,North,355,2.0,3.0,88,0.00,,,0.00,0,Wunderground v.1.15,2013-02-07 09:30:00,
2013-02-07 04:35:00,32.8,29.6,30.40,NNE,31,3.0,4.0,88,0.00,,,0.00,0,Wunderground v.1.15,2013-02-07 09:35:00,
2013-02-07 04:40:00,32.9,29.7,30.40,NNE,12,2.0,2.0,88,0.00,,,0.00,0,Wunderground v.1.15,2013-02-07 09:40:00,
2013-02-07 04:45:00,32.5,29.6,30.41,North,5,1.0,3.0,89,0.00,,,0.00,0,Wunderground v.1.15,2013-02-07 09:45:00,
2013-02-07 04:50:00,32.3,29.4,30.41,North,5,2.0,3.0,89,0.00,,,0.00,0,Wunderground v.1.15,2013-02-07 09:50:00,
2013-02-07 04:55:00,32.3,29.7,30.40,NNE,15,2.0,4.0,90,0.00,,,0.00,0,Wunderground v.1.15,2013-02-07 09:55:00,
2013-02-07 05:00:00,32.6,30.0,30.40,NE,47,3.0,4.0,90,0.00,,,0.00,0,Wunderground v.1.15,2013-02-07 10:00:00,
2013-02-07 05:05:00,32.6,30.0,30.40,North,11,2.0,5.0,90,0.00,,,0.00,0,Wunderground v.1.15,2013-02-07 10:05:00,
2013-02-07 05:10:00,32.3,29.4,30.40,North,5,0.0,2.0,89,0.00,,,0.00,0,Wunderground v.1.15,2013-02-07 10:10:00,
2013-02-07 05:15:00,32.0,29.4,30.41,North,5,1.0,4.0,90,0.00,,,0.00,0,Wunderground v.1.15,2013-02-07 10:15:00,
2013-02-07 05:20:00,31.9,29.6,30.41,NNE,15,0.0,1.0,91,0.00,,,0.00,0,Wunderground v.1.15,2013-02-07 10:20:00,
2013-02-07 05:25:00,31.8,29.5,30.41,NNE,15,0.0,2.0,91,0.00,,,0.00,0,Wunderground v.1.15,2013-02-07 10:25:00,
2013-02-07 05:30:00,32.0,29.7,30.41,North,5,3.0,3.0,91,0.00,,,0.00,0,Wunderground v.1.15,2013-02-07 10:30:00,
2013-02-07 05:35:00,32.2,29.9,30.41,North,5,3.0,4.0,91,0.00,,,0.00,0,Wunderground v.1.15,2013-02-07 10:35:00,
2013-02-07 05:40:00,32.3,29.7,30.41,North,5,2.0,2.0,90,0.00,,,0.00,0,Wunderground v.1.15,2013-02-07 10:40:00,
2013-02-07 05:45:00,32.3,29.7,30.41,North,9,1.0,4.0,90,0.00,,,0.00,0,Wunderground v.1.15,2013-02-07 10:45:00,
2013-02-07 05:50:00,32.1,29.5,30.41,North,5,2.0,3.0,90,0.00,,,0.00,0,Wunderground v.1.15,2013-02-07 10:50:00,
2013-02-07 05:55:00,32.1,29.5,30.41,NNE,20,1.0,4.0,90,0.00,,,0.00,0,Wunderground v.1.15,2013-02-07 10:55:00,
2013-02-07 06:00:00,32.1,29.2,30.41,NNE,13,2.0,2.0,89,0.00,,,0.00,0,Wunderground v.1.15,2013-02-07 11:00:00,
2013-02-07 06:05:00,32.3,29.4,30.42,North,5,2.0,5.0,89,0.00,,,0.00,0,Wunderground v.1.15,2013-02-07 11:05:00,
2013-02-07 06:10:00,32.1,29.2,30.42,North,5,2.0,3.0,89,0.00,,,0.00,0,Wunderground v.1.15,2013-02-07 11:10:00,
2013-02-07 06:15:00,32.2,29.0,30.42,NNE,22,1.0,4.0,88,0.00,,,0.00,0,Wunderground v.1.15,2013-02-07 11:15:00,
2013-02-07 06:20:00,31.9,28.8,30.43,North,9,1.0,2.0,88,0.00,,,0.00,0,Wunderground v.1.15,2013-02-07 11:20:00,
2013-02-07 06:25:00,31.7,28.6,30.43,North,9,0.0,2.0,88,0.00,,,0.00,0,Wunderground v.1.15,2013-02-07 11:25:00,
2013-02-07 06:30:00,31.4,28.5,30.43,North,9,0.0,1.0,89,0.00,,,0.00,0,Wunderground v.1.15,2013-02-07 11:30:00,
2013-02-07 06:35:00,31.5,28.6,30.43,North,9,1.0,2.0,89,0.00,,,0.00,0,Wunderground v.1.15,2013-02-07 11:35:00,
2013-02-07 06:40:00,31.2,28.3,30.43,North,9,1.0,2.0,89,0.00,,,0.00,0,Wunderground v.1.15,2013-02-07 11:40:00,
2013-02-07 06:45:00,31.4,28.5,30.43,North,9,2.0,3.0,89,0.00,,,0.00,0,Wunderground v.1.15,2013-02-07 11:45:00,
2013-02-07 06:50:00,31.6,28.5,30.43,North,9,2.0,3.0,88,0.00,,,0.00,0,Wunderground v.1.15,2013-02-07 11:50:00,
2013-02-07 06:55:00,31.9,28.5,30.43,NNE,23,2.0,3.0,87,0.00,,,0.00,0,Wunderground v.1.15,2013-02-07 11:55:00,
2013-02-07 07:00:00,32.1,28.4,30.43,North,5,2.0,3.0,86,0.00,,,0.00,5,Wunderground v.1.15,2013-02-07 12:00:00,
2013-02-07 07:05:00,32.2,28.5,30.43,NNE,15,2.0,4.0,86,0.00,,,0.00,0,Wunderground v.1.15,2013-02-07 12:05:00,
2013-02-07 07:10:00,32.4,28.4,30.43,NNE,29,0.0,2.0,85,0.00,,,0.00,0,Wunderground v.1.15,2013-02-07 12:10:00,
2013-02-07 07:15:00,32.1,28.1,30.43,NNE,29,0.0,2.0,85,0.00,,,0.00,5,Wunderground v.1.15,2013-02-07 12:15:00,
2013-02-07 07:20:00,32.0,28.0,30.43,NNE,17,2.0,3.0,85,0.00,,,0.00,11,Wunderground v.1.15,2013-02-07 12:20:00,
2013-02-07 07:25:00,32.2,28.2,30.42,NNE,14,2.0,4.0,85,0.00,,,0.00,21,Wunderground v.1.15,2013-02-07 12:25:00,
2013-02-07 07:30:00,32.3,28.3,30.43,North,5,3.0,4.0,85,0.00,,,0.00,28,Wunderground v.1.15,2013-02-07 12:30:00,
2013-02-07 07:35:00,32.4,28.1,30.43,North,5,4.0,4.0,84,0.00,,,0.00,32,Wunderground v.1.15,2013-02-07 12:35:00,
2013-02-07 07:40:00,32.6,28.3,30.43,NE,40,3.0,3.0,84,0.00,,,0.00,32,Wunderground v.1.15,2013-02-07 12:40:00,